Weather History for Hamilton Airport, ON

Change the Weather History Date:

Saturday, November 10, 2012

  Actual Average Record
Temperature  
Mean Temperature 44 °F -  
Max Temperature 48 °F 41 °F 60 °F (2002)
Min Temperature 39 °F 28 °F 24 °F (2003)
Degree Days  
Heating Degree Days 22    
Moisture  
Dew Point 41 °F    
Average Humidity 90    
Maximum Humidity 100    
Minimum Humidity 79    
Precipitation  
Precipitation 0.00 in 0.11 in - ()
Sea Level Pressure  
Sea Level Pressure 30.22 in    
Wind  
Wind Speed 6 mph ()    
Max Wind Speed 15 mph    
Max Gust Speed -    
Visibility 4.0 miles    
Events      
Averages and records for this station are not official NWS values.
T = Trace of Precipitation, MM = Missing Value Source: Averaged Metar Reports

Daily Weather History Graph

Daily Weather History Graph

Search for Another Location

Airport:

Trip Planner

Search our weather history database for the weather conditions in past years. The results will help you decide how hot, cold, wet, or windy it might be!

Date:

Astronomy

Nov. 10, 2012 Rise Set
Actual Time 7:06 AM EST 5:00 PM EST
Civil Twilight 6:36 AM EST 5:30 PM EST
Nautical Twilight 6:02 AM EST 6:04 PM EST
Astronomical Twilight 5:28 AM EST 6:38 PM EST
Moon 3:04 AM EST (11/10) 2:50 PM EST (11/10)
Length of Visible Light 10h 54m
Length of Day
9h 53m
Waning Crescent, 14% of the Moon is Illuminated
Nov 10
Waning Crescent
Nov 13
New
Nov 20
First Quarter
Nov 28
Full
Dec 6
Last Quarter

Hourly Weather History & Observations

Time (EST) Temp. Windchill Dew Point Humidity Pressure Visibility Wind Dir Wind Speed Gust Speed Precip Events Conditions
12:00 AM 41.0 °F 39.0 °F 39.2 °F 93% 30.20 in 6.0 mi South 3.5 mph - N/A   Overcast
1:00 AM 41 °F - 38 °F 86% 30.21 in 5 mi South 5.8 mph - -   Mist
1:00 AM 41.0 °F 37.1 °F 37.4 °F 87% 30.20 in 5.0 mi South 5.8 mph - N/A   Overcast
2:00 AM 41.0 °F - 37.4 °F 87% 30.21 in 6.0 mi Calm Calm - N/A   Overcast
3:00 AM 41.0 °F - 39.2 °F 93% 30.21 in 4.0 mi Calm Calm - N/A   Overcast
4:00 AM 41.0 °F - 39.2 °F 93% 30.22 in 4.0 mi Calm Calm - N/A   Overcast
5:00 AM 41.0 °F 37.1 °F 39.2 °F 93% 30.23 in 5.0 mi ENE 5.8 mph - N/A   Overcast
6:00 AM 41.0 °F 37.1 °F 39.2 °F 93% 30.24 in 5.0 mi NE 5.8 mph - N/A   Overcast
7:00 AM 39 °F - 37 °F 92% 30.25 in 3 mi ENE 6.9 mph - -   Mist
7:00 AM 39.2 °F 34.2 °F 37.4 °F 93% 30.25 in 3.0 mi NE 6.9 mph - N/A   Mostly Cloudy
7:13 AM 39.2 °F 35.0 °F 37.4 °F 93% 30.25 in 2.0 mi NE 5.8 mph - N/A   Mostly Cloudy
8:00 AM 41.0 °F 35.8 °F 41.0 °F 100% 30.26 in 1.5 mi ENE 8.1 mph - N/A   Overcast
8:48 AM 42.8 °F 37.5 °F 39.2 °F 87% 30.27 in 4.0 mi East 9.2 mph - N/A   Overcast
9:00 AM 42.8 °F 37.5 °F 39.2 °F 87% 30.27 in 4.0 mi East 9.2 mph - N/A   Haze
10:00 AM 44.6 °F 39.7 °F 41.0 °F 87% 30.27 in 4.0 mi ENE 9.2 mph - N/A   Haze
11:00 AM 46.4 °F 40.7 °F 41.0 °F 81% 30.25 in 5.0 mi ENE 12.7 mph - N/A   Haze
12:00 PM 46.4 °F 41.9 °F 41.0 °F 81% 30.23 in 5.0 mi East 9.2 mph - N/A   Haze
1:00 PM 47 °F - 43 °F 79% 30.22 in 4 mi ENE 6.9 mph - -   Widespread Dust
1:00 PM 48.2 °F - 42.8 °F 82% 30.22 in 4.0 mi ENE 6.9 mph - N/A   Haze
2:00 PM 46.4 °F 41.5 °F 42.8 °F 87% 30.19 in 3.0 mi NE 10.4 mph - N/A   Haze
3:00 PM 46.4 °F 41.1 °F 42.8 °F 87% 30.20 in 3.0 mi NE 11.5 mph - N/A   Haze
3:21 PM 46.4 °F 40.4 °F 42.8 °F 87% 30.20 in 2.5 mi NE 13.8 mph - N/A   Haze
4:00 PM 46.4 °F 41.1 °F 42.8 °F 87% 30.22 in 2.5 mi NE 11.5 mph - N/A   Overcast
4:07 PM 46.4 °F 40.1 °F 44.6 °F 93% 30.22 in 2.5 mi NE 15.0 mph - N/A   Overcast
4:20 PM 46.4 °F 40.7 °F 44.6 °F 93% 30.22 in 2.5 mi NE 12.7 mph - N/A   Overcast
5:00 PM 46.4 °F 40.1 °F 42.8 °F 87% 30.22 in 3.0 mi ENE 15.0 mph - N/A   Overcast
5:35 PM 44.6 °F 38.1 °F 44.6 °F 100% 30.23 in 4.0 mi ENE 13.8 mph - N/A   Overcast
6:00 PM 44.6 °F 38.4 °F 42.8 °F 93% 30.24 in 4.0 mi ENE 12.7 mph - N/A   Overcast
7:00 PM 45 °F - 44 °F 93% 30.22 in 4 mi ENE 10.4 mph - -   Mist
7:00 PM 44.6 °F 39.2 °F 44.6 °F 100% 30.22 in 4.0 mi ENE 10.4 mph - N/A   Overcast
8:00 PM 44.6 °F 40.2 °F 42.8 °F 93% 30.21 in 4.0 mi NE 8.1 mph - N/A   Overcast
9:00 PM 44.6 °F 39.7 °F 42.8 °F 93% 30.19 in 5.0 mi NE 9.2 mph - N/A   Overcast
10:00 PM 46.4 °F 42.4 °F 42.8 °F 87% 30.19 in 5.0 mi NE 8.1 mph - N/A   Mostly Cloudy
11:00 PM 44.6 °F 42.2 °F 42.8 °F 93% 30.17 in 7.0 mi NE 4.6 mph - N/A   Mostly Cloudy